| time (UTC) | temp F | wind direction | speed knots | gust knots | rain 1hr in | rain 24hr in | rain mn in | humidity % | barometer mb |
| 20260509213002 | 57 | 96 | 0.0 | 0.9 | 0.00 | 0.00 | 0.00 | 90 | 1015.3 |
| 20260509211502 | 57 | 179 | 0.0 | 0.0 | 0.00 | 0.00 | 0.00 | 91 | 1015.4 |
| 20260509210002 | 58 | 179 | 0.0 | 1.7 | 0.00 | 0.00 | 0.00 | 91 | 1015.4 |
| 20260509204503 | 58 | 198 | 0.0 | 0.0 | 0.00 | 0.00 | 0.00 | 92 | 1015.3 |
| 20260509203102 | 58 | 186 | 0.0 | 0.0 | 0.00 | 0.00 | 0.00 | 92 | 1015.4 |
| 20260509201601 | 58 | 186 | 0.0 | 0.0 | 0.00 | 0.00 | 0.00 | 92 | 1015.4 |
| 20260509200059 | 58 | 186 | 0.0 | 0.0 | 0.00 | 0.00 | 0.00 | 92 | 1015.5 |
| 20260509194559 | 58 | 186 | 0.0 | 0.0 | 0.00 | 0.00 | 0.00 | 91 | 1015.3 |
| 20260509193059 | 59 | 186 | 0.0 | 0.0 | 0.00 | 0.00 | 0.00 | 91 | 1015.3 |
| 20260509191609 | 59 | 186 | 0.0 | 0.9 | 0.00 | 0.00 | 0.00 | 90 | 1015.5 |
| 20260509190100 | 59 | 189 | 0.9 | 2.6 | 0.00 | 0.00 | 0.00 | 90 | 1015.4 |
| 20260509184558 | 59 | 191 | 0.9 | 2.6 | 0.00 | 0.00 | 0.00 | 91 | 1015.4 |
| 20260509183055 | 60 | 162 | 0.0 | 0.9 | 0.00 | 0.00 | 0.00 | 90 | 1015.4 |
| 20260509181603 | 60 | 162 | 0.0 | 1.7 | 0.00 | 0.00 | 0.00 | 90 | 1015.4 |
| 20260509180055 | 61 | 162 | 0.0 | 0.9 | 0.00 | 0.00 | 0.00 | 89 | 1015.3 |
| 20260509174601 | 61 | 162 | 0.0 | 0.0 | 0.00 | 0.00 | 0.00 | 88 | 1015.4 |
| 20260509173104 | 61 | 162 | 0.0 | 0.0 | 0.00 | 0.00 | 0.00 | 87 | 1015.3 |
| 20260509171558 | 62 | 162 | 0.9 | 1.7 | 0.00 | 0.00 | 0.00 | 87 | 1015.2 |
| 20260509170051 | 63 | 154 | 0.0 | 0.9 | 0.00 | 0.00 | 0.00 | 85 | 1015.1 |
| 20260509164551 | 64 | 154 | 0.0 | 0.0 | 0.00 | 0.00 | 0.00 | 84 | 1014.9 |
| 20260509163053 | 64 | 154 | 0.0 | 0.0 | 0.00 | 0.00 | 0.00 | 82 | 1014.6 |
| 20260509161551 | 65 | 154 | 0.0 | 1.7 | 0.00 | 0.00 | 0.00 | 82 | 1014.4 |
| 20260509160048 | 67 | 154 | 0.0 | 1.7 | 0.00 | 0.00 | 0.00 | 79 | 1014.3 |
| 20260509154559 | 68 | 4 | 0.0 | 0.0 | 0.00 | 0.00 | 0.00 | 76 | 1014.0 |
| 20260509153047 | 70 | 4 | 0.0 | 0.9 | 0.00 | 0.00 | 0.00 | 73 | 1013.9 |
| 20260509151548 | 72 | 4 | 0.0 | 0.9 | 0.00 | 0.00 | 0.00 | 66 | 1013.8 |
| 20260509150047 | 73 | 4 | 0.0 | 0.0 | 0.00 | 0.00 | 0.00 | 64 | 1013.7 |
| 20260509144602 | 75 | 4 | 0.0 | 0.9 | 0.00 | 0.00 | 0.00 | 55 | 1013.7 |
| 20260509143045 | 76 | 4 | 0.9 | 2.6 | 0.00 | 0.00 | 0.00 | 51 | 1013.6 |
| 20260509141545 | 77 | 300 | 0.0 | 0.9 | 0.00 | 0.00 | 0.00 | 49 | 1013.4 |
| 20260509140058 | 78 | 289 | 0.0 | 1.7 | 0.00 | 0.00 | 0.00 | 49 | 1013.6 |
| 20260509134550 | 80 | 2 | 0.0 | 0.9 | 0.00 | 0.00 | 0.00 | 43 | 1013.5 |
| 20260509133043 | 79 | 219 | 0.0 | 0.9 | 0.00 | 0.00 | 0.00 | 45 | 1013.5 |
| 20260509131553 | 80 | 206 | 0.0 | 1.7 | 0.00 | 0.00 | 0.00 | 43 | 1013.6 |
| 20260509130043 | 80 | 223 | 0.0 | 1.7 | 0.00 | 0.00 | 0.00 | 38 | 1013.6 |
| 20260509124542 | 81 | 246 | 0.0 | 0.9 | 0.00 | 0.00 | 0.00 | 39 | 1013.7 |
| 20260509123038 | 80 | 212 | 0.0 | 1.7 | 0.00 | 0.00 | 0.00 | 38 | 1013.9 |
| 20260509121549 | 81 | 5 | 0.0 | 1.7 | 0.00 | 0.00 | 0.00 | 36 | 1013.9 |
| 20260509120037 | 81 | 229 | 0.0 | 4.3 | 0.00 | 0.00 | 0.00 | 38 | 1013.9 |
| 20260509114534 | 81 | 37 | 0.0 | 4.3 | 0.00 | 0.00 | 0.00 | 36 | 1014.2 |
| 20260509113030 | 81 | 293 | 0.0 | 2.6 | 0.00 | 0.00 | 0.00 | 37 | 1014.2 |
| 20260509111527 | 80 | 299 | 0.0 | 5.2 | 0.00 | 0.00 | 0.00 | 36 | 1014.6 |
| 20260509110021 | 79 | 196 | 0.0 | 4.3 | 0.00 | 0.00 | 0.00 | 37 | 1014.9 |
| 20260509104520 | 78 | 202 | 2.6 | 6.1 | 0.00 | 0.00 | 0.00 | 37 | 1015.2 |
| 20260509103014 | 77 | 322 | 0.0 | 2.6 | 0.00 | 0.00 | 0.00 | 37 | 1015.4 |
| 20260509101511 | 77 | 348 | 0.9 | 3.5 | 0.00 | 0.00 | 0.00 | 43 | 1015.6 |
| 20260509100009 | 76 | 33 | 0.0 | 4.3 | 0.00 | 0.00 | 0.00 | 50 | 1016.1 |
| 20260509094502 | 74 | 4 | 0.0 | 6.1 | 0.00 | 0.00 | 0.00 | 54 | 1016.3 |
| 20260509093159 | 74 | 359 | 2.6 | 6.1 | 0.00 | 0.00 | 0.00 | 55 | 1016.6 |
| 20260509091557 | 73 | 360 | 0.9 | 3.5 | 0.00 | 0.00 | 0.00 | 56 | 1017.0 |
| 20260509090105 | 73 | 353 | 0.9 | 5.2 | 0.00 | 0.00 | 0.00 | 57 | 1017.3 |
| 20260509084553 | 72 | 39 | 0.0 | 1.7 | 0.00 | 0.00 | 0.00 | 56 | 1017.6 |
| 20260509083051 | 71 | 82 | 0.0 | 2.6 | 0.00 | 0.00 | 0.00 | 58 | 1017.9 |
| 20260509081542 | 69 | 111 | 0.0 | 4.3 | 0.00 | 0.00 | 0.00 | 58 | 1018.2 |
| 20260509080037 | 68 | 177 | 3.5 | 7.0 | 0.00 | 0.00 | 0.00 | 60 | 1018.5 |
| 20260509074532 | 66 | 216 | 2.6 | 7.0 | 0.00 | 0.00 | 0.00 | 64 | 1018.6 |
| 20260509073028 | 65 | 183 | 6.1 | 10.4 | 0.00 | 0.00 | 0.00 | 64 | 1018.7 |
| 20260509071523 | 64 | 194 | 7.0 | 11.3 | 0.00 | 0.00 | 0.00 | 67 | 1018.7 |
| 20260509070017 | 63 | 133 | 4.3 | 9.6 | 0.00 | 0.00 | 0.00 | 71 | 1018.6 |
| 20260509064513 | 61 | 174 | 5.2 | 11.3 | 0.00 | 0.00 | 0.00 | 74 | 1018.5 |
| 20260509063012 | 60 | 201 | 6.1 | 12.2 | 0.00 | 0.00 | 0.00 | 76 | 1018.5 |
| 20260509061514 | 59 | 177 | 6.1 | 13.0 | 0.00 | 0.00 | 0.00 | 79 | 1018.5 |
| 20260509060010 | 58 | 181 | 7.0 | 12.2 | 0.00 | 0.00 | 0.00 | 81 | 1018.3 |
| 20260509054503 | 56 | 170 | 2.6 | 7.0 | 0.00 | 0.00 | 0.00 | 83 | 1018.3 |
| 20260509053002 | 56 | 175 | 4.3 | 9.6 | 0.00 | 0.00 | 0.00 | 83 | 1018.3 |
| 20260509051600 | 56 | 157 | 5.2 | 9.6 | 0.00 | 0.00 | 0.00 | 83 | 1018.2 |
| 20260509050057 | 55 | 175 | 5.2 | 9.6 | 0.00 | 0.00 | 0.00 | 83 | 1017.9 |
| 20260509044554 | 55 | 167 | 5.2 | 8.7 | 0.00 | 0.00 | 0.00 | 84 | 1017.8 |
| 20260509043105 | 55 | 144 | 2.6 | 7.0 | 0.00 | 0.00 | 0.00 | 86 | 1017.8 |
| 20260509041600 | 54 | 142 | 0.0 | 0.9 | 0.00 | 0.00 | 0.00 | 87 | 1017.7 |
| 20260509040055 | 54 | 152 | 3.5 | 5.2 | 0.00 | 0.00 | 0.00 | 86 | 1017.4 |
| 20260509034601 | 55 | 146 | 3.5 | 6.1 | 0.00 | 0.00 | 0.00 | 85 | 1017.3 |
| 20260509033044 | 55 | 160 | 4.3 | 7.8 | 0.00 | 0.00 | 0.00 | 84 | 1017.2 |
| 20260509031542 | 55 | 170 | 1.7 | 5.2 | 0.00 | 0.00 | 0.00 | 85 | 1017.1 |
| 20260509030038 | 55 | 169 | 3.5 | 7.0 | 0.00 | 0.00 | 0.00 | 84 | 1016.9 |
| 20260509024536 | 55 | 158 | 3.5 | 7.8 | 0.00 | 0.00 | 0.00 | 85 | 1016.8 |
| 20260509023037 | 55 | 169 | 2.6 | 5.2 | 0.00 | 0.00 | 0.00 | 85 | 1016.8 |
| 20260509021533 | 56 | 129 | 2.6 | 8.7 | 0.00 | 0.00 | 0.00 | 85 | 1016.7 |
| 20260509020033 | 56 | 142 | 5.2 | 9.6 | 0.00 | 0.00 | 0.00 | 84 | 1016.7 |
| 20260509014530 | 56 | 169 | 6.1 | 9.6 | 0.00 | 0.00 | 0.00 | 85 | 1016.7 |
| 20260509013029 | 56 | 152 | 4.3 | 8.7 | 0.00 | 0.00 | 0.00 | 85 | 1016.6 |
| 20260509011530 | 56 | 179 | 4.3 | 8.7 | 0.00 | 0.00 | 0.00 | 86 | 1016.6 |
| 20260509010038 | 56 | 180 | 4.3 | 9.6 | 0.00 | 0.00 | 0.00 | 86 | 1016.7 |
| 20260509004526 | 56 | 158 | 5.2 | 8.7 | 0.00 | 0.00 | 0.00 | 85 | 1016.7 |
| 20260509003021 | 57 | 164 | 3.5 | 8.7 | 0.00 | 0.00 | 0.00 | 85 | 1016.7 |
| 20260509001519 | 57 | 175 | 5.2 | 11.3 | 0.00 | 0.00 | 0.00 | 85 | 1016.6 |
| 20260509000016 | 57 | 171 | 4.3 | 9.6 | 0.00 | 0.00 | 0.00 | 85 | 1016.5 |
| 20260508234521 | 58 | 174 | 3.5 | 7.0 | 0.00 | 0.00 | 0.00 | 85 | 1016.5 |
| 20260508233014 | 58 | 97 | 3.5 | 7.8 | 0.00 | 0.00 | 0.00 | 84 | 1016.6 |
| 20260508231511 | 58 | 161 | 2.6 | 6.1 | 0.00 | 0.00 | 0.00 | 85 | 1016.7 |
| 20260508230011 | 58 | 153 | 3.5 | 7.8 | 0.00 | 0.00 | 0.00 | 84 | 1016.7 |
| 20260508224508 | 58 | 154 | 4.3 | 7.8 | 0.00 | 0.00 | 0.00 | 84 | 1016.6 |
| 20260508223007 | 59 | 179 | 4.3 | 8.7 | 0.00 | 0.00 | 0.00 | 84 | 1016.6 |
| 20260508221516 | 59 | 149 | 4.3 | 7.0 | 0.00 | 0.00 | 0.00 | 85 | 1016.5 |
| 20260508220005 | 59 | 148 | 3.5 | 7.8 | 0.00 | 0.00 | 0.00 | 86 | 1016.5 |
| 20260508214505 | 59 | 198 | 4.3 | 7.0 | 0.00 | 0.00 | 0.00 | 87 | 1016.6 |